Regional Weather Roundup
Issued by NWS Green Bay, WI

Home | Current Version | Previous Version | Graphics & Text | Print | Product List | Glossary Off
Versions: 1 2 3 4 5 6 7 8 9 10 11 12 13 14 15 16 17 18 19 20 21 22 23 24 25 26 27 28 29 30 31 32 33 34 35 36 37 38 39 40 41 42 43 44 45 46 47 48 49 50

000
ASUS43 KGRB 230810
RWRGRB

NORTH-CENTRAL AND NORTHEAST WISCONSIN REGIONAL WEATHER ROUNDUP
NATIONAL WEATHER SERVICE GREEN BAY WI
300 AM CDT TUE SEP 23 2014

WIZ005-009-010>012-018-019-230900-
NORTH CENTRAL WISCONSIN

CITY           SKY/WX    TMP DP  RH WIND       PRES   REMARKS
IRONWOOD       CLEAR     52  48  87 CALM      30.16S
MANITOWISH WTR FOG       42  42 100 CALM      30.20S VSB 1/2
ARBOR VITAE    CLEAR     44  42  93 CALM      30.21S FOG
EAGLE RIVER    FOG       45  45 100 CALM      30.20S VSB 1
LAND O LAKES   CLEAR     39  39 100 CALM      30.21S
RHINELANDER    CLEAR     45  44  97 W7        30.22S
PHILLIPS       CLEAR     43  42  97 CALM      30.21S FOG
ANTIGO         CLEAR     45  45  99 CALM      30.22S FOG
TOMAHAWK       CLEAR     41  40  97 CALM      30.22S FOG
MERRILL        CLEAR     38  38 100 CALM      30.22S FOG
$$

WIZ013-073-230900-
NORTHEAST WISCONSIN

CITY           SKY/WX    TMP DP  RH WIND       PRES   REMARKS
IRON MOUNTAIN  CLEAR     53  48  83 NW7       30.17S
MARINETTE      CLEAR     52  48  87 W3        30.18S
OCONTO         CLEAR     47  47 100 W3        30.19S
$$

WIZ017-030-035>037-045-230900-
CENTRAL WISCONSIN

CITY           SKY/WX    TMP DP  RH WIND       PRES   REMARKS
MEDFORD        FOG       44  44  99 CALM      30.22S VSB<1/4
WAUSAU         CLEAR     49  47  93 CALM      30.21S
MOSINEE        CLEAR     50  50 100 W6        30.23S
MARSHFIELD     CLEAR     48  45  89 CALM      30.22S
WISC RAPIDS    CLEAR     44  43  96 CALM      30.24S FOG
STEVENS POINT  CLEAR     41  40  97 CALM      30.23S
WAUPACA        CLEAR     48  46  95 CALM      30.22F FOG
SHAWANO        CLEAR     48  46  93 CALM      30.21S
CLINTONVILLE   CLEAR     45  45 100 CALM      30.22R
$$

WIZ038-039-048-051-230900-
FOX VALLEY

CITY           SKY/WX    TMP DP  RH WIND       PRES   REMARKS
NWS GREEN BAY  CLEAR     47  46  97 CALM      30.21S
APPLETON       CLEAR     50  48  93 W6        30.22S
OSHKOSH        CLEAR     50  49  96 SW5       30.22S
FOND DU LAC    CLEAR     51  47  86 SW5       30.24R
$$

WIZ022-050-052-230900-
EAST CENTRAL WISCONSIN

CITY           SKY/WX    TMP DP  RH WIND       PRES   REMARKS
STURGEON BAY   CLEAR     54  48  82 W6        30.21R
MANITOWOC      CLEAR     53  51  93 W6        30.22S
SHEBOYGAN      CLEAR     47  45  93 SW3       30.23S
$$

LMZ563-521-522-541>543-230900-
LAKESHORE

STATION/POSITION TIME  TEMP    WIND        PRES    VSBY  WAVE
                       AIR SEA DIR/SP/G                  HT/PER
                 (UTC) (F)     (DEG/KT/KT) (MB)    (MI)  (FT/S)
SHEBOYGAN LKSHOR 0800   54 54  250/  8/  9 1023.9F
KEWAUNEE LKSHORE 0800   51     300/  6/  6 1021.8S
NORTHPORT PIER   0800   58     270/  5/ 10 1021.7S
N MID LAKE BUOY  0800   57 57  240/ 10/ 12 1021.8R         2/ 5
S GREEN BAY BUOY 0700   58     VRB  8/ 10  1023.4S
CHAMBERS ISLAND  0800   55     190/  3/  6 1022.4R
MENOMINEE LKSHOR 0800   56     250/  7/  9 1022.6S
$$


USA.gov is the U.S. government's official web portal to all federal, state and local government web resources and services.